Location: C�mpuri de-Sus
(45.9500°N, 22.5500°E)
Time: 06:16:13
(UTC+00:00)

Cosmos 2322 Rocket - Pass Details

Date: 24 October 2021
Orbit: 832 x 851 km, 71.0° (Epoch: 04 December)

Event Time Altitude Azimuth Distance (km) Brightness Sun altitude
Rises 18:04:42 0° 235° (SW) 3,367 5.9 -27.8°
Reaches altitude 10° 18:07:24 10° 245° (WSW) 2,438 5.2 -28.2°
Maximum altitude 18:12:21 32° 308° (NW) 1,406 3.8 -29.0°
Drops below altitude 10° 18:17:21 10° 11° (N) 2,457 4.6 -29.9°
Enters shadow 18:18:09 - 15° (NNE) 2,722 4.8 -30.0°
